Date String (YYYY-MM-DD hh:mm:ss) UTC,Instrument flags,absolute air pressure of the measurement (hPa),sample flow rate (lpm),inlet stack bypass flow (lpm),air temperature of the measurement (°C),ambient temperature measured by the external sensor (°C),aerosol sample conditioner tube jacket temperature (°C),OPC LED temperature (°C),internal box temperature (°C),relative humidity of the measurement (%),span deviation,mass concentration of particles derived from Lorenz-Mie calculation of OPC scattering (μg/m³),mass concentration of particles derived from Lorenz-Mie calculation of OPC scattering (μg/m³),mass concentration of particles derived from Lorenz-Mie calculation of OPC scattering (μg/m³)
DateTimeUTC,F1_M11,P_M11,Q1_M11,Q2_M11,T1_M11,T2_M11,T3_M11,T4_M11,T5_M11,U1_M11,ZSPAN_M11,X0_M11,X2_M11,X1_M11
2023-10-31 09:00:00,SystemResetWarning,0838.7,4.99,000.00,020.7,019.7,000.0,029.1,022.3,11.0,0003.1,0007.40,0004.57,0004.27
2023-10-31 09:01:00,SystemResetWarning,0838.7,5.01,000.00,020.8,020.4,000.0,029.2,022.8,10.9,0002.1,0007.13,0004.52,0004.24
2023-10-31 09:02:00,SystemResetWarning,0838.7,5.00,000.00,021.0,021.0,000.0,029.2,023.0,10.8,0003.0,0006.94,0004.47,0004.21
2023-10-31 09:03:00,SystemResetWarning,0838.7,4.99,000.00,021.1,021.0,000.0,029.2,022.9,10.8,0004.2,0006.80,0004.45,0004.19
2023-10-31 09:04:00,SystemResetWarning,0838.6,5.01,000.00,021.1,020.9,000.0,029.3,022.8,10.8,0001.8,0006.72,0004.43,0004.18
2023-10-31 09:05:00,SystemResetWarning,0838.7,5.02,000.00,021.1,020.7,000.0,029.3,022.7,10.8,0000.0,0006.57,0004.39,0004.16
2023-10-31 09:06:00,SystemResetWarning,0838.7,4.99,000.00,021.1,020.6,000.0,029.3,022.7,10.8,0000.0,0006.68,0004.38,0004.16
2023-10-31 09:07:00,SystemResetWarning,0838.7,4.99,000.00,021.1,020.5,000.0,029.3,022.6,10.9,0000.0,0006.70,0004.39,0004.16
2023-10-31 09:08:00,SystemResetWarning,0838.6,5.01,000.00,021.1,020.4,000.0,029.3,022.5,10.9,0000.0,0006.73,0004.39,0004.15
2023-10-31 09:09:00,SystemResetWarning,0838.6,5.01,000.00,021.0,020.3,000.0,029.3,022.4,10.9,0000.0,0006.72,0004.38,0004.14
2023-10-31 09:10:00,SystemResetWarning,0838.6,5.00,000.00,021.0,020.3,000.0,029.3,022.4,10.9,0000.0,0006.86,0004.40,0004.14
2023-10-31 09:11:00,SystemResetWarning,0838.6,4.98,000.00,021.0,020.2,000.0,029.3,022.4,11.1,0000.0,0007.14,0004.44,0004.15
2023-10-31 09:12:00,SystemResetWarning,0838.6,4.99,000.00,021.0,020.1,000.0,029.3,022.3,11.1,0000.0,0007.25,0004.47,0004.17
2023-10-31 09:13:00,SystemResetWarning,0838.6,5.01,000.00,021.0,020.0,000.0,029.3,022.3,11.1,0000.0,0007.27,0004.48,0004.17
2023-10-31 09:14:00,SystemResetWarning,0838.6,5.00,000.00,020.9,020.0,000.0,029.3,022.3,11.0,0000.0,0007.40,0004.47,0004.17
2023-10-31 09:15:00,SystemResetWarning,0838.6,5.00,000.00,020.9,019.9,000.0,029.3,022.2,11.1,0000.0,0007.49,0004.48,0004.16
2023-10-31 09:16:00,SystemResetWarning,0838.6,5.01,000.00,020.9,019.9,000.0,029.3,022.2,11.1,0000.0,0007.70,0004.51,0004.16
2023-10-31 09:17:00,SystemResetWarning,0838.6,5.00,000.00,020.9,019.9,000.0,029.3,022.2,11.1,0000.0,0007.72,0004.50,0004.14
2023-10-31 09:18:00,SystemResetWarning,0838.6,5.00,000.00,020.9,019.8,000.0,029.3,022.2,11.1,0000.0,0007.85,0004.53,0004.14
2023-10-31 09:19:00,SystemResetWarning,0838.6,4.99,000.00,020.9,019.8,000.0,029.3,022.2,11.1,0000.0,0007.92,0004.53,0004.12
2023-10-31 09:20:00,SystemResetWarning,0838.6,5.00,000.00,020.8,019.8,000.0,029.3,022.2,11.1,0000.0,0008.00,0004.52,0004.10
2023-10-31 09:21:00,SystemResetWarning,0838.5,5.00,000.00,020.8,019.7,000.0,029.3,022.1,11.1,0000.0,0007.94,0004.51,0004.09
2023-10-31 09:22:00,SystemResetWarning,0838.6,5.00,000.00,020.8,019.7,000.0,029.3,022.1,11.2,0000.0,0008.17,0004.47,0004.07
2023-10-31 09:23:00,SystemResetWarning,0838.6,5.00,000.00,020.8,019.7,000.0,029.3,022.1,11.1,0000.0,0008.57,0004.45,0004.05
2023-10-31 09:24:00,SystemResetWarning,0838.6,5.00,000.00,020.8,019.6,000.0,029.2,022.1,11.1,0000.9,0008.58,0004.44,0004.03
2023-10-31 09:25:00,SystemResetWarning,0838.6,5.00,000.00,020.8,019.6,000.0,029.2,022.1,11.3,0000.9,0008.49,0004.45,0004.03
2023-10-31 09:26:00,SystemResetWarning,0838.6,5.00,000.00,020.8,019.6,000.0,029.2,022.1,11.4,0000.0,0008.41,0004.43,0004.03
2023-10-31 09:27:00,SystemResetWarning,0838.5,5.00,000.00,020.7,019.6,000.0,029.2,022.1,11.4,0000.0,0008.25,0004.42,0004.03
2023-10-31 09:28:00,SystemResetWarning,0838.6,5.01,000.00,020.8,020.0,000.0,029.2,022.6,11.4,0000.0,0008.26,0004.47,0004.04
2023-10-31 09:29:00,SystemResetWarning,0838.6,5.00,000.00,021.0,020.8,000.0,029.2,023.0,11.2,0000.0,0008.15,0004.45,0004.05
2023-10-31 09:30:00,SystemResetWarning,0838.5,4.99,000.00,021.1,021.1,000.0,029.3,023.0,11.2,0000.0,0008.08,0004.45,0004.08
2023-10-31 09:31:00,SystemResetWarning,0838.4,4.99,000.00,021.2,021.0,000.0,029.3,022.9,11.1,0000.0,0008.14,0004.50,0004.11
2023-10-31 09:32:00,SystemResetWarning,0838.4,5.00,000.00,021.2,020.8,000.0,029.3,022.8,11.1,0000.0,0008.17,0004.53,0004.15
2023-10-31 09:33:00,SystemResetWarning,0838.4,5.01,000.00,021.1,020.7,000.0,029.3,022.7,11.1,0000.0,0007.78,0004.55,0004.19
2023-10-31 09:34:00,SystemResetWarning,0838.4,5.00,000.00,021.1,020.6,000.0,029.4,022.6,11.1,0000.6,0007.46,0004.60,0004.22
2023-10-31 09:35:00,SystemResetWarning,0838.4,5.00,000.00,021.1,020.4,000.0,029.4,022.5,11.1,0000.0,0007.55,0004.65,0004.26
2023-10-31 09:36:00,SystemResetWarning,0838.4,5.00,000.00,021.1,020.3,000.0,029.4,022.5,11.2,0000.0,0007.55,0004.67,0004.30
2023-10-31 09:37:00,SystemResetWarning,0838.4,4.99,000.00,021.1,020.2,000.0,029.4,022.4,11.2,0000.0,0007.66,0004.74,0004.34
2023-10-31 09:38:00,SystemResetWarning,0838.4,5.00,000.00,021.0,020.1,000.0,029.4,022.4,11.2,0000.0,0007.73,0004.78,0004.37
2023-10-31 09:39:00,SystemResetWarning,0838.4,5.00,000.00,021.0,020.0,000.0,029.4,022.4,11.2,0000.0,0007.66,0004.75,0004.39
2023-10-31 09:40:00,SystemResetWarning,0838.3,5.00,000.00,021.0,020.0,000.0,029.4,022.3,11.2,0000.0,0007.73,0004.80,0004.44
2023-10-31 09:41:00,SystemResetWarning,0838.3,5.00,000.00,021.0,019.9,000.0,029.4,022.3,11.2,0000.0,0007.82,0004.83,0004.45
2023-10-31 09:42:00,SystemResetWarning,0838.3,5.00,000.00,020.9,019.9,000.0,029.4,022.2,11.2,0000.0,0008.51,0004.83,0004.46
2023-10-31 09:43:00,SystemResetWarning,0838.3,5.00,000.00,020.9,019.8,000.0,029.4,022.2,11.2,0000.0,0008.80,0004.84,0004.47
2023-10-31 09:44:00,SystemResetWarning,0838.3,5.00,000.00,020.9,019.8,000.0,029.3,022.2,11.1,0000.0,0008.82,0004.86,0004.48
2023-10-31 09:45:00,SystemResetWarning,0838.3,5.01,000.00,020.9,019.7,000.0,029.3,022.2,11.1,0000.0,0009.08,0004.88,0004.49
2023-10-31 09:46:00,SystemResetWarning,0838.3,5.01,000.00,020.9,019.7,000.0,029.3,022.1,11.1,0000.0,0009.46,0004.90,0004.53
2023-10-31 09:47:00,SystemResetWarning,0838.4,5.00,000.00,020.8,019.7,000.0,029.3,022.0,11.1,0000.0,0009.56,0004.96,0004.56
2023-10-31 09:48:00,SystemResetWarning,0838.4,5.01,000.00,020.8,019.7,000.0,029.3,022.1,11.1,0000.0,0009.52,0004.95,0004.58
2023-10-31 09:49:00,SystemResetWarning,0838.4,5.00,000.00,020.8,019.7,000.0,029.3,022.1,11.1,0000.0,0009.56,0004.98,0004.61
2023-10-31 09:50:00,SystemResetWarning,0838.3,5.00,000.00,020.8,019.7,000.0,029.3,022.0,11.1,0000.0,0009.55,0005.00,0004.62
2023-10-31 09:51:00,SystemResetWarning,0838.3,5.00,000.00,020.8,019.7,000.0,029.3,022.0,11.2,0000.2,0009.61,0005.03,0004.64
2023-10-31 09:52:00,SystemResetWarning,0838.4,5.01,000.00,020.8,020.0,000.0,029.3,022.5,11.2,0001.1,0009.62,0005.05,0004.66
2023-10-31 09:53:00,SystemResetWarning,0838.4,5.00,000.00,021.0,020.8,000.0,029.3,023.0,11.1,0001.4,0009.35,0005.11,0004.72
2023-10-31 09:54:00,SystemResetWarning,0838.5,4.99,000.00,021.1,021.1,000.0,029.3,023.0,11.0,0000.6,0008.89,0005.13,0004.75
2023-10-31 09:55:00,SystemResetWarning,0838.4,4.99,000.00,021.2,021.1,000.0,029.3,022.9,10.9,0000.2,0009.37,0005.16,0004.79
2023-10-31 09:56:00,SystemResetWarning,0838.4,4.99,000.00,021.2,020.9,000.0,029.4,022.8,10.8,0000.8,0009.26,0005.15,0004.82
2023-10-31 09:57:00,SystemResetWarning,0838.4,5.01,000.00,021.2,020.7,000.0,029.4,022.7,10.8,0001.7,0008.66,0005.17,0004.83
2023-10-31 09:58:00,SystemResetWarning,0838.4,5.00,000.00,021.2,020.6,000.0,029.4,022.7,10.8,0002.7,0008.70,0005.16,0004.83
2023-10-31 09:59:00,SystemResetWarning,0838.4,5.00,000.00,021.1,020.5,000.0,029.4,022.6,10.9,0002.5,0008.71,0005.14,0004.82
